Location: Bobrek
(50.3394°N, 18.8659°E)
Time: 09:47:03
(UTC+00:00)

Daily predictions for brighter satellites

Satellite Brightness Start Highest point End
(mag) Time Altitude Azimuth Time Altitude Azimuth Time Altitude Azimuth
Cosmos 2278 Rocket 2.2 15:08:20 10° NNW 15:14:01 66° ENE 15:19:38 10° SE
Cosmos 2251 Rocket 4.3 15:13:21 10° SSE 15:18:06 35° ESE 15:22:50 10° NE
Cosmos 2360 Rocket 2.9 15:12:43 10° SW 15:18:15 52° NW 15:23:49 10° NNE
Lacrosse 5 rocket 1.8 15:16:48 10° SW 15:21:00 50° SE 15:24:58 10° ENE
ATLAS 3B R/B 4.2 15:17:16 10° NW 15:23:31 42° WSW 15:29:53 10° S
Cosmos 2369 Rocket 3.7 15:21:49 10° N 15:25:16 16° NNE 15:28:43 10° ENE
Cosmos 1980 Rocket 4.3 15:22:50 10° WNW 15:25:56 15° NNW 15:29:02 10° N
SL-4 R/B 1.9 15:23:50 10° WSW 15:27:30 79° SSE 15:31:29 10° ENE
Envisat 3.8 15:23:45 10° ESE 15:28:00 28° ENE 15:32:17 10° N
Meteor 2-6 Rocket 4.1 15:24:58 10° S 15:30:19 69° E 15:35:45 10° NNE
USA 267 3.4 15:23:55 10° ESE 15:30:29 87° SSW 15:37:04 10° WNW
SL-16 R/B 3.8 15:29:36 10° SE 15:32:44 15° E 15:35:51 10° ENE
Cosmos 1862 Rocket 4.0 15:30:06 10° SSE 15:34:10 40° E 15:38:18 10° NNE
CZ-4B R/B 2.4 15:31:13 10° N 15:34:38 49° WNW 15:38:00 10° SSW
NOSS 3-4 (A) 3.7 15:29:37 10° SW 15:35:39 68° NW 15:42:11 10° NE
NOSS 3-4 (C) 3.7 15:29:44 10° SW 15:35:46 68° NW 15:42:18 10° NE
Cosmos 1992 Rocket 4.0 15:30:48 10° NNW 15:36:02 71° ENE 15:41:16 10° SSE
Cosmos 1346 Rocket 4.2 15:32:59 10° NNW 15:36:46 42° W 15:40:33 10° SSW
NOSS 7 (D) 4.1 15:34:06 10° NW 15:37:02 89° SW 15:40:20 10° SE
Cosmos 1743 4.4 15:34:55 10° NNE 15:37:04 14° ENE 15:39:12 10° E
CZ-4 R/B 2.9 15:35:33 10° E 15:37:45 15° ENE 15:39:57 10° NNE
Cosmos 1782 3.8 15:34:25 10° SSW 15:38:16 48° WNW 15:42:09 10° N
Cosmos 1689 Rocket 2.4 15:37:36 10° N 15:40:38 67° WNW 15:43:38 10° SSW
Cosmos 2237 Rocket 2.7 15:36:37 10° S 15:41:57 43° ESE 15:47:19 10° NE
Cosmos 2333 Rocket 2.3 15:36:44 10° SSW 15:42:30 84° WNW 15:48:20 10° NNE
STARLINK-67 3.0 15:39:57 10° W 15:42:39 48° N 15:44:42 15° ENE
Okean O Rocket 2.4 15:39:40 10° S 15:43:55 55° W 15:48:12 10° NNW
Cosmos 2322 Rocket 4.0 15:41:36 10° W 15:46:03 23° NW 15:50:34 10° NNE
Radarsat Rocket 4.4 15:40:02 10° S 15:46:05 69° WSW 15:51:54 10° NNW
IRS-1C Rocket 4.0 15:41:10 10° SSE 15:46:25 72° ENE 15:51:41 10° NNW
CORIOLIS 4.2 15:41:18 10° SE 15:46:38 58° ENE 15:51:59 10° N
YAOGAN 6 3.9 15:44:30 10° ESE 15:47:06 19° ENE 15:49:45 10° NNE
Cosmos 1315 Rocket 3.8 15:44:50 10° SSW 15:48:43 48° WNW 15:52:40 10° N
Cosmos 1707 Rocket 4.0 15:45:05 10° SSW 15:49:31 68° WNW 15:54:01 10° N
Cosmos 2242 Rocket 4.1 15:46:38 10° SSE 15:50:52 39° E 15:55:09 10° NNE
Cosmos 1812 2.7 15:47:38 10° S 15:51:28 61° E 15:55:17 10° NNE
PSLV R/B 3.9 15:48:44 10° NNE 15:52:53 64° ESE 15:56:58 10° S
Cosmos 2219 Rocket 2.4 15:47:27 10° SW 15:53:03 73° WNW 15:58:45 10° NNE
Cosmos 1867 4.1 15:49:42 10° NNW 15:54:50 39° NE 15:59:55 10° ESE
SL-16 R/B 4.2 15:51:10 10° W 15:55:16 20° NW 15:59:22 10° N
STARLINK-46 2.4 15:53:42 10° WSW 15:56:22 77° NNW 15:57:53 22° ENE
Meteor 1-10 Rocket 4.3 15:51:22 10° SSW 15:56:56 85° WNW 16:02:37 10° NNE
Cosmos 1943 Rocket 3.2 15:55:38 10° NNW 16:00:18 25° NE 16:03:43 15° E
Cosmos 1500 3.4 15:56:36 10° NNW 16:00:22 72° W 16:04:05 10° S
Cosmos 1975 4.5 15:58:59 10° NNE 16:00:29 15° NE 16:00:29 15° NE
Okean-O 2.7 15:59:28 10° SE 16:03:46 53° ENE 16:08:07 10° N
Exosat Rocket 3.5 16:00:02 10° SSW 16:05:12 75° ESE 16:10:11 11° NNE
Cosmos 1908 Rocket 3.5 16:02:29 10° N 16:06:52 59° ENE 16:11:10 10° SSE
Meteor 1-11 Rocket 4.2 16:03:57 10° NNW 16:09:55 70° W 16:15:49 10° S
Ariane Rocket 4.4 16:11:59 17° NE 16:11:59 17° NE 16:14:44 10° NNE
FALCON 9 DEB 4.4 16:08:40 10° SSW 16:11:45 29° SE 16:13:10 21° ESE
COSMO-SKYMED 1 3.5 16:10:40 20° NE 16:12:31 27° E 16:16:12 10° SSE
Cosmos 1980 3.7 16:07:32 10° SSW 16:13:10 75° ESE 16:18:14 13° NNE
ATLAS 2AS CENTAUR R/B 3.8 16:06:10 10° WSW 16:13:52 47° NNW 16:20:34 14° NE
Meteor 1-27 Rocket 3.8 16:08:23 10° S 16:14:09 85° E 16:20:05 10° NNE
CSL-04 Rocket 4.2 16:09:51 10° SE 16:14:34 34° ENE 16:19:19 10° N
SMAP 3.4 16:13:29 10° S 16:18:07 69° WSW 16:22:48 10° NNW
Cosmos 2297 3.6 16:13:23 10° NNW 16:19:06 68° ENE 16:24:45 10° SE
SeaSat 1 4.0 16:19:18 17° NE 16:19:30 17° NE 16:22:38 10° N
Nadezhda 4 Rocket 4.0 16:13:41 10° S 16:20:01 89° E 16:26:23 10° N
Okean 1-7 3.5 16:16:51 10° SSE 16:20:52 38° E 16:23:26 20° NE
YAOGAN 1 3.2 16:17:15 10° SE 16:21:06 32° ENE 16:24:59 10° N
Cosmos 1441 Rocket 3.1 16:18:21 10° N 16:22:09 57° ENE 16:25:52 10° SSE
H-2A R/B 3.2 16:19:34 10° S 16:23:12 60° W 16:26:52 10° NNW
Cosmos 1553 Rocket 4.3 16:20:00 10° N 16:26:02 42° ENE 16:32:04 10° SE
CSL-04 Debris 4.4 16:26:57 10° SE 16:32:08 47° ENE 16:37:20 10° N
RESURS DK-1 3.8 16:28:47 10° WSW 16:32:34 34° NW 16:35:46 14° NNE
COSMOS 2428 3.8 16:30:09 10° WSW 16:35:31 41° NW 16:40:46 11° NNE
USA 215 3.3 16:33:27 23° ENE 16:37:49 78° NNW 16:44:22 10° WSW
STARLINK-52 3.9 16:34:36 10° SW 16:37:52 36° SE 16:38:18 35° SE
Genesis I 3.6 16:35:13 10° NW 16:39:05 61° SW 16:42:52 10° SSE
ISS -0.3 16:40:47 10° WSW 16:41:33 11° SW 16:42:19 10° SSW
Meteor 1-18 Rocket 4.5 16:36:26 10° SSE 16:41:49 45° E 16:45:03 22° NNE
Cosmos 2026 Rocket 3.9 16:35:54 10° S 16:41:51 63° E 16:47:51 10° NNE
Cosmos 292 Rocket 4.5 16:37:30 10° NNW 16:42:17 56° WSW 16:47:01 10° S
Cosmos 1263 4.3 16:39:31 10° SSW 16:42:29 71° W 16:43:47 31° N
Cosmos 1666 3.4 16:40:57 10° NNW 16:44:37 54° W 16:48:15 10° S
STARLINK-29 3.6 16:42:36 10° SW 16:45:59 45° SSE 16:46:13 44° SE
Cosmos 1536 4.4 16:42:53 10° NNW 16:46:37 37° W 16:50:18 10° SSW
Cosmos 921 Rocket 3.0 16:43:27 10° NNW 16:47:44 83° WSW 16:52:05 10° SSE
Meteor 2-9 Rocket 4.4 16:42:25 10° N 16:48:07 49° ENE 16:53:44 10° SE
Cosmos 614 Rocket 4.0 16:46:56 10° S 16:51:54 56° ESE 16:53:30 39° NE
NOSS 0 Rocket 4.4 16:47:27 10° SW 16:53:35 59° NW 16:58:26 17° NNE
STARLINK-60 3.1 16:50:29 10° WSW 16:53:48 68° SSE 16:53:48 68° SSE
Cosmos 1174 4.0 16:50:40 10° SSW 16:55:27 55° SE 16:55:51 52° E
NOAA 11 4.2 16:50:29 10° SE 16:55:47 55° ENE 17:01:09 10° N
Cosmos 1417 Rocket 4.4 16:51:28 10° N 16:57:34 64° ENE 17:03:40 10° SSE
BREEZE-M R/B 2.5 16:55:02 10° W 16:59:59 71° SSW 17:00:15 67° SSE
Lacrosse 5 rocket 1.9 16:56:09 10° W 17:00:14 47° NNW 17:00:53 42° N
SKYMED 2 3.4 16:59:21 40° NNE 17:00:53 77° ESE 17:05:13 10° S
Cosmos 1782 Rocket 3.8 16:57:18 10° NNW 17:01:39 69° W 17:05:58 10° S
Cosmos 2360 Rocket 4.4 17:00:13 10° WNW 17:03:39 16° NNW 17:07:05 10° N
Envisat 3.9 17:01:52 10° S 17:06:48 50° W 17:11:46 10° NNW
FengYun 1-2 T 4.5 17:01:21 10° S 17:06:48 70° WSW 17:12:20 10° NNW
SL-4 R/B 1.9 17:03:23 10° W 17:07:13 72° N 17:07:13 72° N
Okean 2 Rocket 3.1 17:02:59 10° N 17:13:22 - SSE 17:06:56 59° NE
Sich 1 Rocket 3.6 17:03:17 10° NNW 17:07:42 79° W 17:12:05 10° S
Aureole 1 Rocket 3.0 17:05:56 10° SW 17:08:48 50° WNW 17:08:48 50° WNW
Cosmos 2221 Rocket 4.5 17:05:21 10° S 17:08:08 35° SSE 17:08:08 35° SSE
Okean 1 3.2 17:05:59 10° S 17:09:47 79° SSE 17:09:47 79° SSE
Cosmos 2369 Rocket 2.2 17:05:05 10° NNW 17:10:37 54° NE 17:11:13 52° E
Cosmos 1140 Rocket 3.5 17:06:22 10° S 17:11:21 55° ESE 17:11:21 55° ESE
CZ-4 R/B 1.6 17:08:29 10° S 17:12:21 65° W 17:16:12 10° NNW
Cosmos 1743 3.1 17:09:27 10° NNW 17:13:16 62° W 17:17:06 10° S
NOSS 3-1 (C) 4.0 17:06:39 10° NW 17:13:44 59° NE 17:16:31 40° E
Cosmos 1703 Rocket 4.2 17:10:46 10° SSW 17:15:10 55° WNW 17:18:22 18° N
Cosmos 2344 4.3 17:06:39 10° NW 17:15:34 62° NE 17:21:26 33° ESE
SL-16 R/B 2.1 17:10:16 10° SSW 17:15:57 83° ESE 17:17:46 46° NE
Cosmos 407 Rocket 3.4 17:12:00 10° SSW 17:17:13 85° ESE 17:18:34 51° NNE
Lacrosse 4 Rocket 4.0 17:16:40 10° N 17:16:44 10° N 17:16:44 10° N
Cosmos 1655 Rocket 3.9 17:14:05 10° S 17:20:17 61° E 17:22:33 39° NNE
YAOGAN 6 4.0 17:17:03 10° SSW 17:20:23 38° W 17:23:47 10° NNW
Cosmos 1023 Rocket 4.3 17:16:32 10° SSW 17:21:29 68° ESE 17:21:29 68° ESE
USA 229 DEB 3.8 17:15:54 10° NW 17:23:01 64° NE 17:24:57 48° E
USA 229 3.8 17:16:01 10° NW 17:23:08 64° NE 17:25:01 49° E
Cosmos 2237 Rocket 3.3 17:20:43 10° WSW 17:26:05 41° NW 17:29:20 22° N
BREEZE-M DEB (TANK) 4.4 17:24:37 10° W 17:26:53 16° SW 17:27:32 15° SSW
Cosmos 2333 Rocket 4.2 17:23:12 10° W 17:27:41 23° NW 17:31:15 13° N
NOSS 3-1 (A) 4.1 17:21:20 10° NW 17:28:19 53° NE 17:29:38 48° ENE
Meteor 1-12 Rocket 4.1 17:30:06 10° N 17:36:02 79° ENE 17:36:52 65° SE
Meteor 2-4 Rocket 4.5 17:30:46 10° S 17:34:30 39° SSE 17:34:30 39° SSE
Meteor 1-19 Rocket 4.0 17:31:02 10° S 17:36:33 87° E 17:36:58 77° NNE
Cosmos 2219 Rocket 4.3 17:34:00 10° W 17:38:03 20° NW 17:41:08 13° N
Cosmos 1867 4.2 17:33:19 10° NW 17:38:40 55° WSW 17:41:04 31° S
BREEZE-M DEB (TANK) 4.2 17:39:20 10° W 17:41:21 23° SW 17:41:21 23° SW
Cosmos 1943 Rocket 2.2 17:39:02 10° NNW 17:44:43 79° WSW 17:45:18 70° S
COSMO-SKYMED 1 3.9 17:47:53 34° NW 17:48:47 38° WNW 17:52:48 10° SW
Ariane Rocket 4.2 17:52:12 32° NNW 17:52:12 32° NNW 17:54:53 10° NNW
Meteor 2-13 Rocket 4.4 17:49:15 10° SSW 17:55:18 81° WNW 17:56:08 67° N
SeaSat 1 4.1 17:59:06 25° NNW 17:59:06 25° NNW 18:01:09 10° NNW
YAOGAN 1 4.3 17:53:19 10° SSW 17:57:12 32° W 18:01:06 10° NNW
S3M 4.4 17:53:00 10° NNW 17:59:08 61° W 18:05:09 10° S
IRS-1A Rocket 4.5 18:01:34 72° NW 18:01:34 72° NW 18:06:56 10° NNW
ATLAS 2AS CENTAUR R/B 4.1 17:59:51 10° WNW 18:06:48 31° N 18:08:00 30° NNE
USA 215 3.7 18:20:48 51° NNW 18:20:48 51° NNW 18:26:47 10° W
Cosmos 2369 Rocket 4.0 18:49:32 10° NW 18:53:04 27° W 18:53:04 27° W
SL-16 R/B 4.2 18:56:09 10° W 18:59:40 23° WNW 18:59:40 23° WNW
